Flag for Mexico

Past Weather in Mexico City, Ciudad de México, Mexico — Yesterday and Last 2 Weeks

Now
72 °F

Thunderstorms. Mostly cloudy.


Feels Like: 77 °F
Forecast: 74 / 57 °F
Wind: 7 mph from Northwest

Location: Mexico City / Licenci

Current Time: Jul 12, 2020 at 7:08:06 pm

Latest Report: Jul 12, 2020 at 6:31 pm


Visibility: 10 mi

Pressure: 30.26 "Hg (23.34 "Hg at 2241m altitude)

Humidity: 41%

Dew Point: 46 °F

Location of Mexico CityLocation

Past Weather in Mexico City — Graph

°F

Mexico City Temperature Yesterday

Maximum temperature yesterday: 75 °F (at 5:45 pm)
Minimum temperature yesterday: 59 °F (at 4:45 am)
Average temperature yesterday: 66 °F

High & Low Weather Summary for the Past Weeks

 TemperatureHumidityPressure
High81 °F (Jun 29, 4:04 pm)94% (Jun 30, 3:00 am)30.44 "Hg (Jun 30, 3:00 am)
Low54 °F (Jul 10, 5:21 am)17% (Jul 2, 4:45 pm)29.64 "Hg (Jul 2, 3:45 pm)
Average67 °F58%30.18 "Hg
* Reported Jun 27 5:50 pm — Jul 12 5:57 pm, Mexico City. Weather by CustomWeather, © 2020

Note: Actual official high and low records may vary slightly from our data, if they occured in-between our weather recording intervals... More about our weather records

Mexico City Weather History for the Previous 24 Hours

Scroll right to see more
 ConditionsComfort  
Time TempWeatherWind HumidityBarometerVisibility
5:57 pm
Sun, Jul 12
75 °FThunderstorms. Broken clouds.9 mph39%30.24 "Hg10 mi
4:53 pm79 °FScattered clouds.9 mph32%30.25 "Hg10 mi
3:43 pm79 °FScattered clouds.7 mph30%29.70 "Hg10 mi
2:50 pm77 °FPartly sunny.5 mph32%30.31 "Hg10 mi
1:52 pm75 °FScattered clouds.No wind36%30.34 "Hg10 mi
1:27 pm75 °FScattered clouds.6 mph39%30.35 "Hg10 mi
12:48 pm72 °FScattered clouds.7 mph41%29.83 "Hg10 mi
11:41 am70 °FScattered clouds.No wind46%30.41 "Hg10 mi
10:49 am68 °FScattered clouds.5 mph53%30.41 "Hg10 mi
9:43 am64 °FBroken clouds.5 mph64%29.91 "Hg11 mi
8:43 am61 °FBroken clouds.5 mph77%30.40 "Hg12 mi
7:47 am61 °FPartly sunny.5 mph72%30.38 "Hg12 mi
6:50 am61 °FPassing clouds.3 mph72%29.83 "Hg12 mi
5:45 am59 °FPassing clouds.No wind77%30.37 "Hg12 mi
5:25 am59 °FPartly cloudy.3 mph77%30.37 "Hg10 mi
5:05 am59 °FLight rain. Partly cloudy.6 mph82%30.37 "Hg10 mi
4:46 am63 °FLight rain. Partly cloudy.3 mph64%30.38 "Hg12 mi
3:45 am63 °FPartly cloudy.6 mph64%29.84 "Hg12 mi
2:45 am63 °FPartly cloudy.7 mph64%30.39 "Hg12 mi
1:45 am64 °FPartly cloudy.5 mph60%30.40 "Hg12 mi
12:50 am64 °FPartly cloudy.6 mph60%29.89 "Hg12 mi
11:40 pm
Sat, Jul 11
66 °FPartly cloudy.7 mph60%30.41 "Hg12 mi
10:45 pm66 °FPartly cloudy.9 mph60%30.38 "Hg12 mi
9:50 pm66 °FPartly cloudy.14 mph56%29.86 "Hg12 mi
9:25 pm66 °FPartly cloudy.14 mph56%30.35 "Hg12 mi
8:45 pm70 °FPartly cloudy.13 mph46%30.33 "Hg12 mi
7:48 pm72 °FBroken clouds.12 mph44%30.31 "Hg12 mi
Weather by CustomWeather, © 2020

See weather overview